Time,TemperatureF,DewpointF,PressureIn,WindDirection,WindDirectionDegrees,WindSpeedMPH,WindSpeedGustMPH,Humidity,HourlyPrecipIn,Conditions,Clouds,dailyrainin,SoftwareType,DateUTC
2013-05-11 00:05:00,41.5,31.0,30.46,West,262,0.0,-999.0,67,-99.99,,,0.00,weatherlink.com 1.10,2013-05-11 06:05:00,
2013-05-11 00:20:00,41.1,31.0,30.46,West,259,2.0,-999.0,67,-99.99,,,0.00,weatherlink.com 1.10,2013-05-11 06:20:00,
2013-05-11 00:50:00,41.3,31.0,30.45,West,259,0.0,-999.0,67,-99.99,,,0.00,weatherlink.com 1.10,2013-05-11 06:50:00,
2013-05-11 01:05:00,40.1,31.0,30.47,West,259,0.0,-999.0,70,-99.99,,,0.00,weatherlink.com 1.10,2013-05-11 07:05:00,
2013-05-11 01:20:00,39.2,31.0,30.49,West,259,0.0,-999.0,71,-99.99,,,0.00,weatherlink.com 1.10,2013-05-11 07:20:00,
2013-05-11 01:35:00,39.2,31.0,30.49,West,259,0.0,-999.0,72,-99.99,,,0.00,weatherlink.com 1.10,2013-05-11 07:35:00,
2013-05-11 01:50:00,38.9,31.0,30.49,West,259,0.0,-999.0,73,-99.99,,,0.00,weatherlink.com 1.10,2013-05-11 07:50:00,
2013-05-11 02:05:00,38.6,31.0,30.54,West,259,0.0,-999.0,73,-99.99,,,0.00,weatherlink.com 1.10,2013-05-11 08:05:00,
2013-05-11 02:20:00,38.0,30.0,30.56,West,259,0.0,-999.0,74,-99.99,,,0.00,weatherlink.com 1.10,2013-05-11 08:20:00,
2013-05-11 02:35:00,37.9,30.0,30.56,West,259,0.0,-999.0,74,-99.99,,,0.00,weatherlink.com 1.10,2013-05-11 08:35:00,
2013-05-11 02:50:00,37.8,30.0,30.56,West,259,0.0,-999.0,74,-99.99,,,0.00,weatherlink.com 1.10,2013-05-11 08:50:00,
2013-05-11 03:05:00,38.3,30.0,30.57,West,259,0.0,-999.0,73,-99.99,,,0.00,weatherlink.com 1.10,2013-05-11 09:05:00,
2013-05-11 03:20:00,37.6,30.0,30.58,West,259,0.0,-999.0,74,-99.99,,,0.00,weatherlink.com 1.10,2013-05-11 09:20:00,
2013-05-11 03:35:00,36.9,30.0,30.58,West,259,0.0,-999.0,75,-99.99,,,0.00,weatherlink.com 1.10,2013-05-11 09:35:00,
2013-05-11 03:50:00,36.8,30.0,30.58,West,259,0.0,-999.0,76,-99.99,,,0.00,weatherlink.com 1.10,2013-05-11 09:50:00,
2013-05-11 04:05:00,36.3,30.0,30.55,West,259,0.0,-999.0,77,-99.99,,,0.00,weatherlink.com 1.10,2013-05-11 10:05:00,
2013-05-11 04:20:00,36.9,30.0,30.55,West,259,0.0,-999.0,76,-99.99,,,0.00,weatherlink.com 1.10,2013-05-11 10:20:00,
2013-05-11 04:35:00,37.2,30.0,30.55,West,259,0.0,-999.0,75,-99.99,,,0.00,weatherlink.com 1.10,2013-05-11 10:35:00,
2013-05-11 04:50:00,36.5,30.0,30.55,West,259,0.0,-999.0,76,-99.99,,,0.00,weatherlink.com 1.10,2013-05-11 10:50:00,
2013-05-11 05:05:00,36.2,29.0,30.53,West,259,0.0,-999.0,76,-99.99,,,0.00,weatherlink.com 1.10,2013-05-11 11:05:00,
2013-05-11 05:20:00,36.6,29.0,30.55,West,259,0.0,-999.0,74,-99.99,,,0.00,weatherlink.com 1.10,2013-05-11 11:20:00,
2013-05-11 05:35:00,36.2,29.0,30.55,West,259,0.0,-999.0,75,-99.99,,,0.00,weatherlink.com 1.10,2013-05-11 11:35:00,
2013-05-11 05:50:00,35.8,29.0,30.55,West,259,0.0,-999.0,76,-99.99,,,0.00,weatherlink.com 1.10,2013-05-11 11:50:00,
2013-05-11 06:05:00,36.6,29.0,30.60,West,259,0.0,-999.0,73,-99.99,,,0.00,weatherlink.com 1.10,2013-05-11 12:05:00,
2013-05-11 06:20:00,36.3,29.0,30.59,West,259,0.0,-999.0,74,-99.99,,,0.00,weatherlink.com 1.10,2013-05-11 12:20:00,
2013-05-11 06:35:00,36.0,28.0,30.61,West,259,0.0,-999.0,74,-99.99,,,0.00,weatherlink.com 1.10,2013-05-11 12:35:00,
2013-05-11 06:50:00,38.2,30.0,30.59,West,259,0.0,-999.0,71,-99.99,,,0.00,weatherlink.com 1.10,2013-05-11 12:50:00,
2013-05-11 07:06:00,40.5,29.0,30.58,West,259,2.0,-999.0,64,-99.99,,,0.00,weatherlink.com 1.10,2013-05-11 13:06:00,
2013-05-11 07:21:00,42.6,29.0,30.57,West,259,0.0,-999.0,60,-99.99,,,0.00,weatherlink.com 1.10,2013-05-11 13:21:00,
2013-05-11 07:36:00,43.3,29.0,30.55,West,259,0.0,-999.0,58,-99.99,,,0.00,weatherlink.com 1.10,2013-05-11 13:36:00,
2013-05-11 07:51:00,43.8,30.0,30.55,WSW,244,2.0,-999.0,58,-99.99,,,0.00,weatherlink.com 1.10,2013-05-11 13:51:00,
2013-05-11 08:06:00,44.2,28.0,30.59,SW,223,0.0,-999.0,54,-99.99,,,0.00,weatherlink.com 1.10,2013-05-11 14:06:00,
2013-05-11 08:21:00,45.8,29.0,30.57,SW,223,0.0,-999.0,52,-99.99,,,0.00,weatherlink.com 1.10,2013-05-11 14:21:00,
2013-05-11 08:36:00,49.2,31.0,30.55,SW,223,0.0,-999.0,50,-99.99,,,0.00,weatherlink.com 1.10,2013-05-11 14:36:00,
2013-05-11 08:51:00,50.1,31.0,30.54,South,175,1.0,-999.0,48,-99.99,,,0.00,weatherlink.com 1.10,2013-05-11 14:51:00,
2013-05-11 09:06:00,51.4,31.0,30.54,South,172,1.0,-999.0,46,-99.99,,,0.00,weatherlink.com 1.10,2013-05-11 15:06:00,
2013-05-11 09:22:00,53.1,30.0,30.52,South,169,2.0,-999.0,42,-99.99,,,0.00,weatherlink.com 1.10,2013-05-11 15:22:00,
2013-05-11 09:35:00,53.8,31.0,30.52,SE,145,0.0,-999.0,42,-99.99,,,0.00,weatherlink.com 1.10,2013-05-11 15:35:00,
2013-05-11 09:50:00,55.7,28.0,30.50,SE,143,0.0,-999.0,35,-99.99,,,0.00,weatherlink.com 1.10,2013-05-11 15:50:00,
2013-05-11 10:05:00,56.7,25.0,30.49,SE,139,0.0,-999.0,29,-99.99,,,0.00,weatherlink.com 1.10,2013-05-11 16:05:00,
2013-05-11 10:20:00,56.9,24.0,30.48,SSE,156,2.0,-999.0,28,-99.99,,,0.00,weatherlink.com 1.10,2013-05-11 16:20:00,
2013-05-11 10:35:00,58.3,23.0,30.48,SE,125,0.0,-999.0,26,-99.99,,,0.00,weatherlink.com 1.10,2013-05-11 16:35:00,
2013-05-11 10:50:00,58.9,23.0,30.46,South,169,2.0,-999.0,25,-99.99,,,0.00,weatherlink.com 1.10,2013-05-11 16:50:00,
2013-05-11 11:06:00,59.8,22.0,30.49,ESE,108,3.0,-999.0,23,-99.99,,,0.00,weatherlink.com 1.10,2013-05-11 17:06:00,
2013-05-11 11:21:00,59.3,20.0,30.47,East,91,0.0,-999.0,22,-99.99,,,0.00,weatherlink.com 1.10,2013-05-11 17:21:00,
2013-05-11 11:36:00,60.7,21.0,30.47,ENE,74,5.0,-999.0,22,-99.99,,,0.00,weatherlink.com 1.10,2013-05-11 17:36:00,
2013-05-11 11:51:00,61.6,21.0,30.47,SE,124,2.0,-999.0,21,-99.99,,,0.00,weatherlink.com 1.10,2013-05-11 17:51:00,
2013-05-11 12:06:00,61.2,21.0,30.44,East,101,0.0,-999.0,21,-99.99,,,0.00,weatherlink.com 1.10,2013-05-11 18:06:00,
2013-05-11 12:21:00,62.6,21.0,30.44,East,87,2.0,-999.0,20,-99.99,,,0.00,weatherlink.com 1.10,2013-05-11 18:21:00,
2013-05-11 12:36:00,62.1,24.0,30.44,WSW,247,8.0,-999.0,23,-99.99,,,0.00,weatherlink.com 1.10,2013-05-11 18:36:00,
2013-05-11 12:51:00,62.9,24.0,30.43,East,100,6.0,-999.0,23,-99.99,,,0.00,weatherlink.com 1.10,2013-05-11 18:51:00,
2013-05-11 13:06:00,62.7,21.0,30.47,SSW,194,1.0,-999.0,20,-99.99,,,0.00,weatherlink.com 1.10,2013-05-11 19:06:00,
2013-05-11 13:21:00,63.5,24.0,30.45,SSE,153,6.0,-999.0,22,-99.99,,,0.00,weatherlink.com 1.10,2013-05-11 19:21:00,
2013-05-11 13:36:00,62.6,23.0,30.44,SE,134,5.0,-999.0,22,-99.99,,,0.00,weatherlink.com 1.10,2013-05-11 19:36:00,
2013-05-11 13:51:00,64.0,24.0,30.44,WSW,247,6.0,-999.0,22,-99.99,,,0.00,weatherlink.com 1.10,2013-05-11 19:51:00,
2013-05-11 14:06:00,64.3,24.0,30.43,South,175,0.0,-999.0,22,-99.99,,,0.00,weatherlink.com 1.10,2013-05-11 20:06:00,
2013-05-11 14:21:00,62.6,25.0,30.43,SSW,211,3.0,-999.0,24,-99.99,,,0.00,weatherlink.com 1.10,2013-05-11 20:21:00,
2013-05-11 14:36:00,63.1,25.0,30.43,WSW,241,10.0,-999.0,23,-99.99,,,0.00,weatherlink.com 1.10,2013-05-11 20:36:00,
2013-05-11 14:51:00,62.9,27.0,30.43,SSW,200,2.0,-999.0,26,-99.99,,,0.00,weatherlink.com 1.10,2013-05-11 20:51:00,
2013-05-11 15:06:00,62.6,28.0,30.44,ESE,114,1.0,-999.0,27,-99.99,,,0.00,weatherlink.com 1.10,2013-05-11 21:06:00,
2013-05-11 15:21:00,63.5,28.0,30.43,South,183,5.0,-999.0,26,-99.99,,,0.00,weatherlink.com 1.10,2013-05-11 21:21:00,
2013-05-11 15:36:00,64.0,26.0,30.42,SE,135,0.0,-999.0,24,-99.99,,,0.00,weatherlink.com 1.10,2013-05-11 21:36:00,
2013-05-11 15:51:00,64.3,28.0,30.40,SE,134,3.0,-999.0,25,-99.99,,,0.00,weatherlink.com 1.10,2013-05-11 21:51:00,
2013-05-11 16:05:00,59.2,26.0,30.44,ENE,70,7.0,-999.0,28,-99.99,,,0.00,weatherlink.com 1.10,2013-05-11 22:05:00,
2013-05-11 16:20:00,57.0,29.0,30.48,WNW,292,5.0,-999.0,34,-99.99,,,0.00,weatherlink.com 1.10,2013-05-11 22:20:00,
2013-05-11 16:36:00,53.1,38.0,30.48,North,357,1.0,-999.0,57,-99.99,,,0.00,weatherlink.com 1.10,2013-05-11 22:36:00,
2013-05-11 16:51:00,53.1,34.0,30.52,West,273,2.0,-999.0,49,-99.99,,,0.00,weatherlink.com 1.10,2013-05-11 22:51:00,
2013-05-11 17:06:00,53.5,34.0,30.54,WSW,245,2.0,-999.0,47,-99.99,,,0.00,weatherlink.com 1.10,2013-05-11 23:06:00,
2013-05-11 17:21:00,54.7,33.0,30.52,South,189,0.0,-999.0,44,-99.99,,,0.00,weatherlink.com 1.10,2013-05-11 23:21:00,
2013-05-11 17:36:00,55.0,33.0,30.50,SSW,196,6.0,-999.0,44,-99.99,,,0.00,weatherlink.com 1.10,2013-05-11 23:36:00,
2013-05-11 17:51:00,56.9,31.0,30.51,South,172,6.0,-999.0,38,-99.99,,,0.00,weatherlink.com 1.10,2013-05-11 23:51:00,
2013-05-11 18:06:00,57.5,33.0,30.49,SE,132,0.0,-999.0,40,-99.99,,,0.00,weatherlink.com 1.10,2013-05-12 00:06:00,
2013-05-11 18:21:00,57.8,33.0,30.48,SSE,149,0.0,-999.0,39,-99.99,,,0.00,weatherlink.com 1.10,2013-05-12 00:21:00,
2013-05-11 18:35:00,56.5,33.0,30.48,SSE,149,0.0,-999.0,41,-99.99,,,0.00,weatherlink.com 1.10,2013-05-12 00:35:00,
2013-05-11 18:51:00,55.6,34.0,30.50,SSE,149,0.0,-999.0,44,-99.99,,,0.00,weatherlink.com 1.10,2013-05-12 00:51:00,
2013-05-11 19:06:00,53.8,34.0,30.46,NW,307,2.0,-999.0,47,-99.99,,,0.00,weatherlink.com 1.10,2013-05-12 01:06:00,
2013-05-11 19:21:00,53.3,35.0,30.47,NW,307,0.0,-999.0,50,-99.99,,,0.00,weatherlink.com 1.10,2013-05-12 01:21:00,
2013-05-11 19:36:00,52.8,34.0,30.47,NW,313,2.0,-999.0,50,-99.99,,,0.00,weatherlink.com 1.10,2013-05-12 01:36:00,
2013-05-11 19:51:00,53.2,35.0,30.47,ENE,71,0.0,-999.0,50,-99.99,,,0.00,weatherlink.com 1.10,2013-05-12 01:51:00,
2013-05-11 20:06:00,52.8,35.0,30.43,ENE,71,0.0,-999.0,51,-99.99,,,0.00,weatherlink.com 1.10,2013-05-12 02:06:00,
2013-05-11 20:21:00,51.0,35.0,30.43,ENE,71,0.0,-999.0,54,-99.99,,,0.00,weatherlink.com 1.10,2013-05-12 02:21:00,
2013-05-11 20:36:00,49.4,33.0,30.45,ENE,71,0.0,-999.0,53,-99.99,,,0.00,weatherlink.com 1.10,2013-05-12 02:36:00,
2013-05-11 20:51:00,48.0,31.0,30.47,ENE,71,1.0,-999.0,53,-99.99,,,0.00,weatherlink.com 1.10,2013-05-12 02:51:00,
2013-05-11 21:06:00,50.5,32.0,30.43,NW,316,5.0,-999.0,49,-99.99,,,0.00,weatherlink.com 1.10,2013-05-12 03:06:00,
2013-05-11 21:21:00,51.1,31.0,30.42,WNW,296,2.0,-999.0,46,-99.99,,,0.00,weatherlink.com 1.10,2013-05-12 03:21:00,
2013-05-11 21:36:00,49.8,32.0,30.42,WNW,296,0.0,-999.0,50,-99.99,,,0.00,weatherlink.com 1.10,2013-05-12 03:36:00,
2013-05-11 21:51:00,47.7,31.0,30.44,WNW,296,0.0,-999.0,53,-99.99,,,0.00,weatherlink.com 1.10,2013-05-12 03:51:00,
2013-05-11 22:06:00,46.8,32.0,30.43,WNW,296,0.0,-999.0,56,-99.99,,,0.00,weatherlink.com 1.10,2013-05-12 04:06:00,
2013-05-11 22:21:00,45.4,31.0,30.45,WNW,296,0.0,-999.0,58,-99.99,,,0.00,weatherlink.com 1.10,2013-05-12 04:21:00,
2013-05-11 22:36:00,44.8,31.0,30.45,WNW,296,0.0,-999.0,58,-99.99,,,0.00,weatherlink.com 1.10,2013-05-12 04:36:00,
2013-05-11 22:51:00,44.8,31.0,30.45,WNW,296,0.0,-999.0,60,-99.99,,,0.00,weatherlink.com 1.10,2013-05-12 04:51:00,
2013-05-11 23:06:00,44.3,32.0,30.44,WNW,296,0.0,-999.0,62,-99.99,,,0.00,weatherlink.com 1.10,2013-05-12 05:06:00,
2013-05-11 23:21:00,43.5,32.0,30.45,WNW,296,1.0,-999.0,64,-99.99,,,0.00,weatherlink.com 1.10,2013-05-12 05:21:00,
2013-05-11 23:36:00,43.2,32.0,30.45,WNW,296,0.0,-999.0,64,-99.99,,,0.00,weatherlink.com 1.10,2013-05-12 05:36:00,
2013-05-11 23:51:00,42.8,32.0,30.45,WNW,296,0.0,-999.0,65,-99.99,,,0.00,weatherlink.com 1.10,2013-05-12 05:51:00,